Location: Cella
(44.7333°N, 10.5667°E)
Time: 14:46:00
(UTC+00:00)

Cosmos 1777 Rocket - Pass Details

Date: 03 March 2021
Orbit: 759 x 775 km, 74.0° (Epoch: 19 April)

Event Time Altitude Azimuth Distance (km) Brightness Sun altitude
Rises 18:28:23 0° 344° (NNW) 3,248 7.5 -15.0°
Reaches altitude 10° 18:30:55 10° 352° (N) 2,314 6.7 -15.5°
Maximum altitude 18:35:51 40° 62° (ENE) 1,114 4.4 -16.3°
Enters shadow 18:38:02 27° 111° (ESE) 1,426 4.8 -16.7°
